Location: Makakahi
(40.6833°S, 175.6000°E)
Time: 14:20:44
(UTC+00:00)

FENGYUN 1C DEB - Pass Details

Date: 14 February 2026
Orbit: 839 x 906 km, 98.9° (Epoch: 3 March)

Event Time Altitude Azimuth Distance (km) Brightness Sun altitude
Rises 08:53:33 0° 164° (SSE) 3,448 ? -16.4°
Reaches altitude 10° 08:55:57 10° 161° (SSE) 2,513 ? -16.8°
Maximum altitude 09:01:31 66° 78° (ENE) 947 ? -17.6°
Drops below altitude 10° 09:07:05 10° 355° (N) 2,523 ? -18.5°
Enters shadow 09:07:19 - 355° (N) 2,613 ? -18.5°
